| time (UTC) | temp F | wind direction | speed knots | gust knots | rain 1hr in | rain 24hr in | rain mn in | humidity % | barometer mb |
| 20260901122126 | 72 | 151 | 0.9 | 1.7 | 0.00 | 0.24 | 0.24 | 99 | 1014.1 |
| 20260901121122 | 72 | 107 | 0.9 | 2.6 | 0.00 | 0.24 | 0.24 | 99 | 1014.4 |
| 20260901120122 | 72 | 101 | 0.0 | 1.7 | 0.00 | 0.24 | 0.24 | 99 | 1014.4 |
| 20260901115122 | 71 | 202 | 0.0 | 1.7 | 0.00 | 0.24 | 0.24 | 99 | 1014.2 |
| 20260901114121 | 71 | 114 | 0.9 | 1.7 | 0.00 | 0.24 | 0.24 | 99 | 1014.4 |
| 20260901113121 | 71 | 102 | 0.9 | 1.7 | 0.00 | 0.24 | 0.24 | 99 | 1014.2 |
| 20260901112121 | 71 | 110 | 0.9 | 2.6 | 0.00 | 0.24 | 0.24 | 99 | 1014.5 |
| 20260901111121 | 70 | 110 | 1.7 | 2.6 | 0.00 | 0.24 | 0.24 | 99 | 1014.6 |
| 20260901110123 | 70 | 86 | 0.0 | 1.7 | 0.00 | 0.24 | 0.24 | 99 | 1014.6 |
| 20260901105126 | 70 | 43 | 0.9 | 1.7 | 0.00 | 0.24 | 0.24 | 99 | 1014.5 |
| 20260901104121 | 70 | 99 | 0.9 | 1.7 | 0.00 | 0.24 | 0.24 | 99 | 1014.2 |
| 20260901103121 | 70 | 124 | 0.9 | 1.7 | 0.00 | 0.24 | 0.24 | 99 | 1014.1 |
| 20260901102123 | 70 | 113 | 0.0 | 0.0 | 0.00 | 0.24 | 0.24 | 99 | 1014.2 |
| 20260901101121 | 70 | 180 | 0.0 | 0.0 | 0.00 | 0.24 | 0.24 | 99 | 1014.1 |
| 20260901100122 | 70 | 225 | 0.0 | 0.0 | 0.00 | 0.24 | 0.24 | 99 | 1014.1 |
| 20260901095147 | 70 | 92 | 0.0 | 1.7 | 0.00 | 0.24 | 0.24 | 99 | 1013.9 |
| 20260901094121 | 70 | 90 | 0.9 | 2.6 | 0.00 | 0.24 | 0.24 | 99 | 1014.1 |
| 20260901093125 | 70 | 100 | 0.0 | 1.7 | 0.00 | 0.24 | 0.24 | 99 | 1014.2 |
| 20260901092121 | 70 | 118 | 0.0 | 2.6 | 0.01 | 0.24 | 0.24 | 99 | 1014.4 |
| 20260901091122 | 70 | 270 | 0.0 | 0.0 | 0.03 | 0.24 | 0.24 | 99 | 1014.4 |
| 20260901090145 | 70 | 135 | 0.0 | 0.0 | 0.03 | 0.24 | 0.24 | 99 | 1014.4 |
| 20260901085122 | 70 | 113 | 0.0 | 0.0 | 0.04 | 0.24 | 0.24 | 99 | 1014.4 |
| 20260901084122 | 70 | 68 | 0.0 | 0.0 | 0.04 | 0.24 | 0.24 | 99 | 1014.4 |
| 20260901083122 | 70 | 135 | 0.0 | 0.0 | 0.04 | 0.24 | 0.24 | 99 | 1014.6 |
| 20260901082145 | 70 | 113 | 0.0 | 0.0 | 0.03 | 0.23 | 0.23 | 99 | 1014.7 |
| 20260901081123 | 70 | 45 | 0.0 | 0.0 | 0.01 | 0.21 | 0.21 | 99 | 1014.8 |
| 20260901080144 | 70 | 113 | 0.0 | 0.0 | 0.04 | 0.21 | 0.21 | 99 | 1014.8 |
| 20260901075122 | 70 | 90 | 0.0 | 0.9 | 0.05 | 0.20 | 0.20 | 99 | 1014.8 |
| 20260901074126 | 70 | 98 | 0.9 | 1.7 | 0.07 | 0.20 | 0.20 | 99 | 1014.6 |
| 20260901073121 | 70 | 152 | 0.9 | 1.7 | 0.07 | 0.20 | 0.20 | 99 | 1014.7 |
| 20260901072121 | 70 | 99 | 1.7 | 2.6 | 0.07 | 0.20 | 0.20 | 99 | 1014.8 |
| 20260901071121 | 70 | 94 | 0.0 | 1.7 | 0.07 | 0.20 | 0.20 | 99 | 1014.9 |
| 20260901070143 | 70 | 90 | 0.9 | 1.7 | 0.04 | 0.17 | 0.17 | 99 | 1014.9 |
| 20260901065121 | 70 | 194 | 0.9 | 1.7 | 0.03 | 0.15 | 0.15 | 99 | 1015.0 |
| 20260901064126 | 70 | 242 | 0.9 | 1.7 | 0.07 | 0.13 | 0.13 | 99 | 1015.0 |
| 20260901063122 | 70 | 146 | 0.9 | 1.7 | 0.07 | 0.13 | 0.13 | 99 | 1015.1 |
| 20260901062121 | 70 | 225 | 0.9 | 3.5 | 0.11 | 0.13 | 0.13 | 99 | 1015.4 |
| 20260901061121 | 70 | 157 | 0.9 | 1.7 | 0.13 | 0.13 | 0.13 | 99 | 1015.4 |
| 20260901060142 | 70 | 126 | 0.0 | 1.7 | 0.13 | 0.13 | 0.13 | 99 | 1015.4 |
| 20260901055142 | 70 | 234 | 0.0 | 1.7 | 0.12 | 0.12 | 0.12 | 99 | 1015.6 |
| 20260901054121 | 70 | 220 | 0.0 | 1.7 | 0.06 | 0.06 | 0.06 | 99 | 1015.6 |
| 20260901053121 | 71 | 180 | 0.0 | 1.7 | 0.06 | 0.06 | 0.06 | 99 | 1015.7 |
| 20260901052125 | 71 | 207 | 0.0 | 1.7 | 0.03 | 0.03 | 0.03 | 99 | 1015.9 |
| 20260901051122 | 71 | 200 | 0.0 | 1.7 | 0.00 | 0.00 | 0.00 | 99 | 1015.8 |
| 20260901050122 | 71 | 166 | 1.7 | 2.6 | 0.00 | 0.00 | 0.00 | 99 | 1015.8 |
| 20260901045123 | 72 | 154 | 0.9 | 2.6 | 0.00 | 0.00 | 0.00 | 98 | 1015.9 |
| 20260901044122 | 72 | 231 | 1.7 | 4.3 | 0.00 | 0.00 | 0.00 | 97 | 1016.0 |
| 20260901043143 | 72 | 228 | 1.7 | 3.5 | 0.00 | 0.00 | 0.00 | 96 | 1015.9 |
| 20260901042122 | 72 | 214 | 1.7 | 3.5 | 0.00 | 0.00 | 0.00 | 95 | 1015.9 |
| 20260901041121 | 72 | 246 | 1.7 | 3.5 | 0.00 | 0.00 | 0.00 | 95 | 1016.0 |
| 20260901040123 | 72 | 275 | 2.6 | 4.3 | 0.00 | 0.00 | 0.00 | 95 | 1016.0 |
| 20260901035122 | 72 | 193 | 1.7 | 2.6 | 0.00 | 0.00 | 0.00 | 95 | 1015.9 |
| 20260901034123 | 72 | 227 | 1.7 | 2.6 | 0.00 | 0.00 | 0.00 | 95 | 1016.1 |
| 20260901033121 | 72 | 217 | 0.9 | 2.6 | 0.00 | 0.00 | 0.00 | 95 | 1016.2 |
| 20260901032122 | 72 | 194 | 1.7 | 3.5 | 0.00 | 0.00 | 0.00 | 95 | 1016.1 |
| 20260901031121 | 72 | 175 | 1.7 | 2.6 | 0.00 | 0.00 | 0.00 | 95 | 1016.4 |
| 20260901030122 | 72 | 186 | 1.7 | 2.6 | 0.00 | 0.00 | 0.00 | 95 | 1016.6 |
| 20260901025121 | 72 | 225 | 0.9 | 1.7 | 0.00 | 0.00 | 0.00 | 95 | 1016.6 |
| 20260901024122 | 72 | 187 | 1.7 | 3.5 | 0.00 | 0.00 | 0.00 | 96 | 1016.6 |
| 20260901023122 | 72 | 164 | 0.9 | 2.6 | 0.00 | 0.00 | 0.00 | 97 | 1016.6 |
| 20260901022122 | 72 | 156 | 1.7 | 3.5 | 0.00 | 0.00 | 0.00 | 97 | 1016.7 |
| 20260901021121 | 72 | 162 | 0.9 | 2.6 | 0.00 | 0.00 | 0.00 | 98 | 1016.7 |
| 20260901020123 | 72 | 199 | 0.9 | 2.6 | 0.00 | 0.01 | 0.00 | 98 | 1016.7 |
| 20260901015122 | 72 | 200 | 1.7 | 2.6 | 0.00 | 0.01 | 0.00 | 98 | 1016.8 |
| 20260901014122 | 72 | 192 | 0.9 | 2.6 | 0.00 | 0.01 | 0.00 | 98 | 1016.8 |
| 20260901013142 | 72 | 234 | 0.9 | 2.6 | 0.00 | 0.01 | 0.00 | 98 | 1016.9 |
| 20260901012123 | 72 | 174 | 0.9 | 2.6 | 0.00 | 0.01 | 0.00 | 97 | 1016.8 |
| 20260901011122 | 72 | 193 | 1.7 | 3.5 | 0.00 | 0.01 | 0.00 | 95 | 1016.7 |
| 20260901010123 | 72 | 186 | 1.7 | 3.5 | 0.00 | 0.01 | 0.00 | 93 | 1016.7 |
| 20260901005142 | 73 | 199 | 0.9 | 2.6 | 0.00 | 0.01 | 0.00 | 92 | 1016.7 |
| 20260901004122 | 73 | 179 | 1.7 | 3.5 | 0.00 | 0.01 | 0.00 | 91 | 1016.6 |
| 20260901003122 | 73 | 222 | 0.9 | 3.5 | 0.00 | 0.01 | 0.00 | 91 | 1016.6 |
| 20260901002121 | 73 | 151 | 1.7 | 3.5 | 0.00 | 0.01 | 0.00 | 91 | 1016.6 |
| 20260901001122 | 73 | 152 | 1.7 | 3.5 | 0.00 | 0.01 | 0.00 | 89 | 1016.5 |
| 20260901000123 | 73 | 147 | 1.7 | 3.5 | 0.00 | 0.01 | 0.00 | 89 | 1016.5 |
| 20260831235123 | 73 | 125 | 1.7 | 2.6 | 0.00 | 0.01 | 0.00 | 88 | 1016.6 |
| 20260831234121 | 74 | 157 | 0.9 | 1.7 | 0.00 | 0.01 | 0.00 | 87 | 1016.7 |
| 20260831233121 | 74 | 155 | 0.9 | 1.7 | 0.00 | 0.01 | 0.00 | 86 | 1016.8 |
| 20260831232122 | 75 | 142 | 0.9 | 2.6 | 0.00 | 0.01 | 0.00 | 84 | 1016.8 |
| 20260831231122 | 74 | 119 | 0.9 | 1.7 | 0.00 | 0.01 | 0.00 | 84 | 1016.8 |
| 20260831230142 | 75 | 160 | 1.7 | 2.6 | 0.00 | 0.01 | 0.00 | 84 | 1016.8 |
| 20260831225143 | 75 | 218 | 1.7 | 3.5 | 0.00 | 0.01 | 0.00 | 84 | 1016.8 |
| 20260831224124 | 75 | 207 | 0.9 | 2.6 | 0.00 | 0.01 | 0.00 | 84 | 1016.7 |
| 20260831223124 | 75 | 144 | 1.7 | 2.6 | 0.00 | 0.01 | 0.00 | 83 | 1016.8 |
| 20260831222121 | 75 | 188 | 1.7 | 3.5 | 0.00 | 0.01 | 0.00 | 81 | 1016.9 |
| 20260831221122 | 76 | 150 | 1.7 | 3.5 | 0.00 | 0.01 | 0.00 | 82 | 1017.1 |
| 20260831220121 | 75 | 125 | 2.6 | 3.5 | 0.00 | 0.01 | 0.00 | 83 | 1017.1 |
| 20260831215122 | 76 | 232 | 2.6 | 4.3 | 0.00 | 0.01 | 0.00 | 82 | 1016.9 |
| 20260831214121 | 76 | 190 | 1.7 | 3.5 | 0.00 | 0.01 | 0.00 | 82 | 1017.0 |
| 20260831213144 | 76 | 190 | 1.7 | 3.5 | 0.00 | 0.01 | 0.00 | 83 | 1017.2 |
| 20260831212124 | 76 | 246 | 2.6 | 4.3 | 0.00 | 0.01 | 0.00 | 82 | 1017.2 |
| 20260831211125 | 76 | 117 | 1.7 | 4.3 | 0.00 | 0.01 | 0.00 | 82 | 1017.0 |
| 20260831210123 | 76 | 206 | 2.6 | 4.3 | 0.00 | 0.01 | 0.00 | 80 | 1017.0 |
| 20260831205122 | 76 | 134 | 1.7 | 3.5 | 0.00 | 0.01 | 0.00 | 80 | 1017.1 |
| 20260831204123 | 76 | 279 | 3.5 | 5.2 | 0.00 | 0.01 | 0.00 | 79 | 1017.1 |
| 20260831203123 | 76 | 209 | 2.6 | 4.3 | 0.00 | 0.01 | 0.00 | 79 | 1017.2 |
| 20260831202143 | 77 | 192 | 1.7 | 5.2 | 0.00 | 0.01 | 0.00 | 78 | 1017.4 |
| 20260831201124 | 77 | 177 | 1.7 | 3.5 | 0.00 | 0.01 | 0.00 | 76 | 1017.4 |
| 20260831200125 | 77 | 237 | 2.6 | 4.3 | 0.00 | 0.01 | 0.00 | 76 | 1017.4 |
| 20260831195125 | 77 | 214 | 2.6 | 5.2 | 0.00 | 0.01 | 0.00 | 76 | 1017.5 |
| 20260831194121 | 78 | 163 | 2.6 | 4.3 | 0.00 | 0.01 | 0.00 | 74 | 1017.4 |
| 20260831193121 | 78 | 181 | 2.6 | 5.2 | 0.00 | 0.01 | 0.00 | 73 | 1017.5 |
| 20260831192121 | 78 | 232 | 2.6 | 4.3 | 0.00 | 0.01 | 0.00 | 72 | 1017.7 |
| 20260831191121 | 79 | 151 | 2.6 | 6.1 | 0.00 | 0.01 | 0.00 | 71 | 1017.7 |
| 20260831190143 | 80 | 219 | 2.6 | 4.3 | 0.00 | 0.01 | 0.00 | 69 | 1017.7 |
| 20260831185142 | 80 | 216 | 2.6 | 5.2 | 0.00 | 0.01 | 0.00 | 70 | 1017.7 |
| 20260831184121 | 80 | 246 | 2.6 | 4.3 | 0.00 | 0.01 | 0.00 | 70 | 1017.7 |
| 20260831183121 | 81 | 294 | 2.6 | 6.1 | 0.00 | 0.01 | 0.00 | 68 | 1017.7 |
| 20260831182121 | 82 | 146 | 2.6 | 4.3 | 0.00 | 0.01 | 0.00 | 66 | 1017.9 |
| 20260831181123 | 82 | 188 | 2.6 | 4.3 | 0.00 | 0.01 | 0.00 | 67 | 1018.0 |
| 20260831180122 | 84 | 210 | 2.6 | 4.3 | 0.00 | 0.01 | 0.00 | 63 | 1018.0 |
| 20260831175122 | 86 | 158 | 2.6 | 4.3 | 0.00 | 0.01 | 0.00 | 61 | 1018.0 |
| 20260831174121 | 86 | 139 | 2.6 | 4.3 | 0.00 | 0.01 | 0.00 | 61 | 1018.0 |
| 20260831173121 | 84 | 318 | 1.7 | 4.3 | 0.00 | 0.01 | 0.00 | 65 | 1018.1 |
| 20260831172123 | 82 | 102 | 0.9 | 2.6 | 0.00 | 0.01 | 0.00 | 68 | 1018.2 |
| 20260831171122 | 80 | 211 | 1.7 | 3.5 | 0.00 | 0.01 | 0.00 | 70 | 1018.2 |
| 20260831170122 | 80 | 139 | 1.7 | 2.6 | 0.00 | 0.01 | 0.00 | 69 | 1018.2 |
| 20260831165122 | 81 | 250 | 1.7 | 3.5 | 0.00 | 0.01 | 0.00 | 69 | 1018.2 |
| 20260831164122 | 81 | 218 | 1.7 | 3.5 | 0.00 | 0.01 | 0.00 | 69 | 1018.2 |
| 20260831163122 | 80 | 127 | 1.7 | 3.5 | 0.00 | 0.01 | 0.00 | 69 | 1018.4 |
| 20260831162122 | 79 | 101 | 1.7 | 3.5 | 0.00 | 0.01 | 0.00 | 73 | 1018.4 |
| 20260831161123 | 78 | 70 | 1.7 | 3.5 | 0.00 | 0.01 | 0.00 | 74 | 1018.4 |
| 20260831160123 | 78 | 284 | 1.7 | 3.5 | 0.00 | 0.01 | 0.00 | 74 | 1018.4 |
| 20260831155122 | 79 | 52 | 1.7 | 3.5 | 0.00 | 0.01 | 0.00 | 72 | 1018.4 |
| 20260831154123 | 79 | 103 | 2.6 | 5.2 | 0.00 | 0.01 | 0.00 | 72 | 1018.4 |
| 20260831153122 | 79 | 121 | 2.6 | 6.1 | 0.00 | 0.01 | 0.00 | 73 | 1018.4 |
| 20260831152121 | 77 | 174 | 1.7 | 2.6 | 0.00 | 0.01 | 0.00 | 77 | 1018.6 |
| 20260831151123 | 76 | 92 | 2.6 | 5.2 | 0.00 | 0.01 | 0.00 | 79 | 1018.5 |
| 20260831150121 | 76 | 101 | 1.7 | 3.5 | 0.00 | 0.01 | 0.00 | 80 | 1018.5 |
| 20260831145121 | 76 | 116 | 1.7 | 3.5 | 0.00 | 0.01 | 0.00 | 80 | 1018.8 |
| 20260831144143 | 75 | 35 | 1.7 | 4.3 | 0.00 | 0.01 | 0.00 | 82 | 1018.9 |
| 20260831143122 | 74 | 100 | 1.7 | 3.5 | 0.00 | 0.01 | 0.00 | 82 | 1018.7 |
| 20260831142122 | 74 | 82 | 1.7 | 3.5 | 0.00 | 0.01 | 0.00 | 84 | 1018.6 |
| 20260831141122 | 73 | 99 | 1.7 | 3.5 | 0.00 | 0.01 | 0.00 | 86 | 1018.6 |
| 20260831140123 | 73 | 95 | 2.6 | 4.3 | 0.00 | 0.01 | 0.00 | 86 | 1018.6 |
| 20260831135121 | 73 | 66 | 1.7 | 3.5 | 0.00 | 0.01 | 0.00 | 86 | 1018.6 |
| 20260831134121 | 72 | 66 | 1.7 | 3.5 | 0.00 | 0.01 | 0.00 | 86 | 1018.5 |
| 20260831133121 | 72 | 56 | 1.7 | 2.6 | 0.00 | 0.01 | 0.00 | 87 | 1018.5 |
| 20260831132124 | 73 | 104 | 1.7 | 3.5 | 0.00 | 0.01 | 0.00 | 86 | 1018.5 |
| 20260831131122 | 72 | 64 | 2.6 | 4.3 | 0.00 | 0.01 | 0.00 | 87 | 1018.4 |
| 20260831130123 | 72 | 25 | 1.7 | 2.6 | 0.00 | 0.01 | 0.00 | 88 | 1018.4 |
| 20260831125122 | 72 | 100 | 1.7 | 3.5 | 0.00 | 0.01 | 0.00 | 88 | 1018.4 |
| 20260831124122 | 72 | 53 | 1.7 | 3.5 | 0.00 | 0.01 | 0.00 | 89 | 1018.2 |
| 20260831123122 | 71 | 40 | 1.7 | 3.5 | 0.00 | 0.01 | 0.00 | 89 | 1018.1 |